HORYU-2 (38340 NORAD) Tracking and Keplerian Element Data

This shows tracking and keplerian element data for the satellite.

Feedback or suggestion? Click here.




ElementValue
Catalog38340
NameHORYU-2
Epoch Orbit46698
Epoch Day91.13551315
Epoch Year2021
RAAN157.0281
Inclination98.2402
Eccentricity0.0011211
Argument of Perigee196.0886
Mean Anonmoly163.9968
Mean Motion14.76003374
Decay Rate2.76E-06
L11 38340U 12025D 21091.13551315 .00000276 00000-0 47914-4 0 9999
L22 38340 98.2402 157.0281 0011211 196.0886 163.9968 14.76003374466983



Live tracking and technical data element details for HORYU-2 (NORAD 38340). HORYU-2 can be tracked NOW for your location showing map with azimuth and elevation plus other details from your city location.







IsCatalogInMostPopularTable: catalog: 38340, numindb: 349
Update: records affected: 1



GetName: 38340 HORYU-2

Hit Count: updated at: Fri, 02 Dec 2022 12:24:33 GMT